Location: Dumpton Point
(51.3500°N, 1.4433°E)
Time: 10:21:23
(UTC+00:00)

Transit 2A - Visible Passes

Search period start: 07 October 2022 00:00
Search period end: 17 October 2022 00:00
Orbit: 601 x 956 km, 66.7° (Epoch: 06 October)

Date Brightness Start Highest point End Pass type
(mag) Time Alt. Az. Time Alt. Az. Time Alt. Az.
07 Oct 8.5 01:53:27 11° N 01:53:27 11° N 01:54:22 10° NNE visible
07 Oct 8.2 03:35:05 10° NNW 03:37:47 15° NNE 03:40:35 10° ENE visible
07 Oct 6.9 05:17:37 10° NNW 05:22:02 44° NE 05:26:48 10° ESE visible
08 Oct 8.3 03:00:45 10° NNW 03:03:03 14° NNE 03:05:25 10° NE visible
08 Oct 7.3 04:43:19 10° NNW 04:47:31 34° NE 04:52:01 10° ESE visible
09 Oct 8.4 02:27:10 12° N 02:28:18 12° N 02:30:16 10° NE visible
09 Oct 7.7 04:09:02 10° NNW 04:12:58 27° NE 04:17:08 10° E visible
10 Oct 8.6 01:53:51 12° N 01:53:51 12° N 01:55:12 10° NNE visible
10 Oct 7.9 03:34:46 10° NNW 03:38:21 22° NNE 03:42:09 10° E visible
10 Oct 5.9 05:17:26 10° NW 05:22:06 84° NE 05:27:14 10° SE visible
11 Oct 8.2 03:01:04 12° NNW 03:03:42 19° NNE 03:07:05 10° ENE visible
11 Oct 6.3 04:43:04 10° NNW 04:47:41 62° NE 04:52:43 10° SE visible
12 Oct 8.2 02:27:54 15° N 02:29:01 16° NNE 02:31:57 10° ENE visible
12 Oct 6.8 04:08:45 10° NNW 04:13:13 46° NE 04:18:05 10° ESE visible
13 Oct 8.5 01:54:49 14° NNE 01:54:49 14° NNE 01:56:47 10° NE visible
13 Oct 7.2 03:35:18 15° NNW 03:38:43 35° NE 03:43:20 10° ESE visible
13 Oct 6.1 05:17:26 10° NW 05:22:00 49° WSW 05:27:00 10° SSE visible
14 Oct 7.6 03:02:20 22° N 03:04:10 28° NE 03:08:27 10° E visible
14 Oct 5.8 04:42:58 10° NW 04:47:40 69° SW 04:52:49 10° SSE visible
15 Oct 7.9 02:29:31 23° NNE 02:29:34 23° NNE 02:33:29 10° E visible
15 Oct 5.8 04:10:02 21° NW 04:13:17 87° NE 04:18:29 10° SE visible
16 Oct 8.5 01:56:50 16° ENE 01:56:50 16° ENE 01:58:25 10° ENE visible
16 Oct 6.1 03:37:22 42° NNW 03:38:52 65° NE 03:43:59 10° SE visible
16 Oct 7.0 05:17:54 10° WNW 05:21:42 24° WSW 05:25:52 10° SSW visible
